Regional Weather Roundup
Issued by NWS

Home | Current Version | Previous Version | Graphics & Text | Print | Product List | Glossary On
Versions: 1 2 3 4 5 6 7 8 9 10 11 12 13 14 15 16 17 18 19 20 21 22 23 24 25 26 27 28 29 30 31 32 33 34 35 36 37 38 39 40 41 42 43 44 45 46 47 48 49 50
000
ASUS43 KLSX 211259
RWRMO

WEATHER SUMMARY FOR MISSOURI
NATIONAL WEATHER SERVICE SPRINGFIELD MO
800 AM CDT TUE OCT 21 2014

NOTE: "FAIR" INDICATES FEW OR NO CLOUDS BELOW 12,000 FEET WITH NO
       SIGNIFICANT WEATHER AND/OR OBSTRUCTIONS TO VISIBILITY.
       CURRENT SKY AND/OR WEATHER CONDITIONS ARE NOT AVAILABLE FOR
       CHILLICOTHE AND FARMINGTON.

MOZ001>031-035>038-043-044-053-054-211400-
...NORTHERN AND WESTERN MISSOURI...

CITY           SKY/WX    TMP DP  RH WIND       PRES   REMARKS
KANSAS CTY INT CLEAR     48  43  82 E3        30.12R
KANSAS C DTWN  CLEAR     46  43  89 CALM      30.12S
LEE`S SUMMIT   CLEAR     47  43  86 CALM      30.12R
ST JOSEPH      FOG       35  35 100 CALM      30.13R VSB 1/2
CHILLICOTHE      N/A     40  38  93 CALM      30.14R
KIRKSVILLE     CLEAR     43  41  93 NE6       30.13R

$$
MOZ066>068-077>081-088>096-101>105-211400-
...SOUTHWEST MISSOURI...

CITY           SKY/WX    TMP DP  RH WIND       PRES   REMARKS
SPRINGFIELD    CLEAR     47  44  90 CALM      30.11S FOG
JOPLIN         FOG       49  49 100 S3        30.12R VSB<1/4

$$
MOZ032>034-039>042-045>050-055>058-069>072-211400-
...CENTRAL MISSOURI...

CITY           SKY/WX    TMP DP  RH WIND       PRES   REMARKS
COLUMBIA       CLEAR     47  43  86 NW5       30.12R
JEFFERSON CITY CLEAR     43  42  97 CALM      30.13R
ROLLA          CLEAR     44  41  89 W5        30.10R
SEDALIA        CLEAR     48  42  80 CALM      30.13R
OSAGE BEACH    CLEAR     41  37  87 CALM      30.12R

$$
MOZ051-052-059>065-211400-
...EAST CENTRAL MISSOURI...

CITY           SKY/WX    TMP DP  RH WIND       PRES   REMARKS
ST LOUIS INTL  CLEAR     50  44  80 W5        30.10R
SPIRIT OF STL  CLEAR     43  41  93 CALM      30.10R
ST CHARLES     CLEAR     44  42  93 CALM      30.10R

$$
MOZ072>076-082>087-097>100-106>115-211400-
...SOUTH CENTRAL AND SOUTHEAST MISSOURI...

CITY           SKY/WX    TMP DP  RH WIND       PRES   REMARKS
CAPE GIRARDEAU CLEAR     44  44 100 CALM      30.08R FOG
FARMINGTON     CLEAR     43  39  87 CALM      30.11R
WEST PLAINS    CLEAR     46  42  86 CALM      30.11S

$$



USA.gov is the U.S. government's official web portal to all federal, state and local government web resources and services.